User: anonymous   Login
Location: Mauna Kea VIS
(19.7591°N, 155.4561°W)
Time: 22:01:41
(UTC-10:00)
Language:

Cosmos 1624 Rocket - Orbit

View from above orbital plane
View from above orbital plane
View from above satellite
View from above satellite

Ground track
Ground track

The orbit data is extracted from the following two-line orbital elements,

1 15483U 85006B   15089.85826331  .00000344  00000-0  12717-3 0  9991
2 15483 074.0467 040.3923 0019828 223.2924 199.3399 14.35990687580372
Epoch (UTC): 30 March 2015 20:35:53
Eccentricity: 0.0019828
inclination: 74.0467°
perigee height: 757 km
apogee height: 786 km
right ascension of ascending node: 40.3923°
argument of perigee: 223.2924°
revolutions per day: 14.35990687
mean anomaly at epoch: 199.3399°
orbit number at epoch: 58037

The dashed part of the orbit path shows where the satellite is in the earth's shadow,  

DLR